User: anonymous   Login
Location: Plymouth
(43.7570°N, 71.6890°W)
Time: 00:15:05
(UTC-04:00)
Language:

Cosmos 2016 Rocket - Orbit

View from above orbital plane
View from above orbital plane
View from above satellite
View from above satellite

Ground track
Ground track

The orbit data is extracted from the following two-line orbital elements,

1 19922U 89028B   16120.78400439 +.00000044 +00000-0 +28778-4 0  9999
2 19922 082.9620 013.4542 0035764 325.6397 095.3238 13.77177605360071
Epoch (UTC): 29 April 2016 18:48:57
Eccentricity: 0.0035764
inclination: 82.9620°
perigee height: 947 km
apogee height: 1000 km
right ascension of ascending node: 13.4542°
argument of perigee: 325.6397°
revolutions per day: 13.77177605
mean anomaly at epoch: 95.3238°
orbit number at epoch: 36007

The dashed part of the orbit path shows where the satellite is in the earth's shadow,  

DLR